Regional Weather Roundup
Issued by NWS

Home | Current Version | Previous Version | Text Only | Print | Product List | Glossary On
Versions: 1 2 3 4 5 6 7 8 9 10 11 12 13 14 15 16 17 18 19 20 21 22 23 24 25 26 27 28 29 30 31 32 33 34 35 36 37 38 39 40 41 42 43 44 45 46 47 48 49 50
000
ASUS44 KEWX 101211
RWRTX
SOUTH TEXAS REGIONAL WEATHER ROUNDUP
NATIONAL WEATHER SERVICE AUSTIN/SAN ANTONIO TX
600 AM CST WED FEB 10 2016

NOTE: "FAIR" INDICATED FEW OR NO CLOUDS BELOW 12,000 FEET WITH NO
SIGNIFICANT WEATHER AND/OR OBSTRUCTIONS TO VISIBILITY.

* - THESE STATIONS ARE NOT NWS OR FAA STATIONS...AND ARE NOT SUBJECT
    TO NWS AND FAA QUALITY CONTROL.

TXZ171-172-183>190-101300-
TEXAS HILL COUNTRY AND EDWARDS PLATEAU

CITY           SKY/WX    TMP DP  RH WIND       PRES   REMARKS
JUNCTION       CLEAR     29  23  78 W3        30.34R
6HR MIN TEMP:  29; 6HR MAX TEMP:  38;

*LLANO         CLEAR     32  28  86 CALM      30.39R
BURNET         CLEAR     41  25  53 E5        30.36S WCI  38
6HR MIN TEMP:  41; 6HR MAX TEMP:  50;

*HORSESHOE BAY CLEAR     33  30  90 S3        30.35S
6HR MIN TEMP:  33; 6HR MAX TEMP:  51;

*KERRVILLE     CLEAR     32  29  86 CALM      30.34R
6HR MIN TEMP:  31; 6HR MAX TEMP:  38;

*FREDERICKSBRG CLEAR     32  26  77 CALM      30.33S
6HR MIN TEMP:  30; 6HR MAX TEMP:  39;

*ROCKSPRINGS   CLEAR     54  23  30 CALM      30.34R
*BOERNE STAGE  CLEAR     34  28  80 CALM      30.35S
*CASTROVILLE   CLEAR     38  28  68 NW8       30.34S WCI  32
HONDO          CLEAR     35  24  64 N7        30.35R WCI  29
6HR MIN TEMP:  33; 6HR MAX TEMP:  41;

*UVALDE        CLEAR     36  28  74 CALM      30.32S
6HR MIN TEMP:  35; 6HR MAX TEMP:  46;

DEL RIO        CLEAR     38  26  62 CALM      30.31R
6HR MIN TEMP:  37; 6HR MAX TEMP:  51;

LAUGHLIN AFB   CLEAR     37  25  62 NE6       30.30S WCI  32
6HR MIN TEMP:  36; 6HR MAX TEMP:  42;

CARRIZO SPRGS  CLEAR     34  27  75 CALM      30.32R
*EAGLE PASS    SUNNY     36  25  64 NE5       30.31  WCI  32
$$

TXZ173-191>194-202-209-217>225-228-101300-
CENTRAL AND SOUTH CENTRAL TEXAS

CITY           SKY/WX    TMP DP  RH WIND       PRES   REMARKS
GEORGETOWN     CLEAR     32  25  74 CALM      30.36R
6HR MIN TEMP:  32; 6HR MAX TEMP:  39;

AUSTIN/BERGSTM CLEAR     35  32  88 CALM      30.36R
6HR MIN TEMP:  31; 6HR MAX TEMP:  42;

AUSTIN/MABRY   CLEAR     40  31  70 CALM      30.36R
6HR MIN TEMP:  39; 6HR MAX TEMP:  51;

*AUSTIN/EXEC   CLEAR     41  28  60 N6        30.36R WCI  37
*LAGO VISTA    CLEAR     43  28  54 E3        30.35R
6HR MIN TEMP:  43; 6HR MAX TEMP:  53;

SAN MARCOS     CLEAR     39  28  65 N6        30.36R WCI  35
6HR MIN TEMP:  37; 6HR MAX TEMP:  48;

NEW BRAUNFELS  CLEAR     43  30  60 NE7       30.33R WCI  39
6HR MIN TEMP:  41; 6HR MAX TEMP:  48;

RANDOLPH AFB   CLEAR     40  31  69 N6        30.33S WCI  36
6HR MIN TEMP:  40; 6HR MAX TEMP:  50;

PT SAN ANTONIO CLEAR     43  32  65 N6        30.31S WCI  39
6HR MIN TEMP:  41; 6HR MAX TEMP:  49;

SAN ANTONIO    CLEAR     46  30  53 N3        30.34R
6HR MIN TEMP:  42; 6HR MAX TEMP:  51;

STINSON FIELD  CLEAR     49  30  48 N6        30.31S WCI  46
6HR MIN TEMP:  41; 6HR MAX TEMP:  51;

*PLEASANTON    CLEAR     36  30  81 CALM      30.34R
6HR MIN TEMP:  35; 6HR MAX TEMP:  46;

*LA GRANGE     CLEAR     38  33  83 CALM      30.33R
6HR MIN TEMP:  37; 6HR MAX TEMP:  44;

*GIDDINGS      CLEAR     38  31  76 CALM      30.38S
6HR MIN TEMP:  36; 6HR MAX TEMP:  45;

*GONZALES      CLEAR     41  33  72 NE3       30.34R
6HR MIN TEMP:  40; 6HR MAX TEMP:  55;

$$

TXZ163>164-176>182-195>201-210>213-226-227-235-101300-
SOUTHEAST TEXAS

CITY           SKY/WX    TMP DP  RH WIND       PRES   REMARKS
COLLEGE STN    CLEAR     37  29  72 CALM      30.36R
6HR MIN TEMP:  37; 6HR MAX TEMP:  53;

*BRYAN         CLEAR     39  28  64 CALM      30.36S
6HR MIN TEMP:  36; 6HR MAX TEMP:  47;

*CALDWELL      CLEAR     37  30  75 CALM      30.39R
*CROCKETT      CLEAR     32  27  80 NE3       30.38S
*BRENHAM       CLEAR     36  32  88 CALM      30.36R
6HR MIN TEMP:  36; 6HR MAX TEMP:  47;

HUNTSVILLE     CLEAR     38  27  64 CALM      30.34S
6HR MIN TEMP:  37; 6HR MAX TEMP:  46;

CONROE         CLEAR     31  29  92 CALM      30.36R
6HR MIN TEMP:  31; 6HR MAX TEMP:  36;

HOUSTON BUSH   PTCLDY    41  31  67 CALM      30.37R
6HR MIN TEMP:  41; 6HR MAX TEMP:  50;

HOUSTON HOBBY  CLEAR     44  30  57 CALM      30.36R
6HR MIN TEMP:  44; 6HR MAX TEMP:  49;

*HOUSTON SW AP CLEAR     38  33  82 CALM      30.37S
6HR MIN TEMP:  37; 6HR MAX TEMP:  42;

PEARLAND       CLEAR     41  32  70 CALM      30.38R
6HR MIN TEMP:  41; 6HR MAX TEMP:  48;

HOUSTON HOOKS  CLEAR     38  33  82 CALM      30.36R
6HR MIN TEMP:  37; 6HR MAX TEMP:  43;

ELLINGTON FLD  CLEAR     50  30  46 CALM      30.38R
SUGAR LAND     CLEAR     41  32  70 CALM      30.36R
6HR MIN TEMP:  40; 6HR MAX TEMP:  45;

*HOUSTON EXEC  CLEAR     39  32  75 CALM      30.37S
*CLEVELAND MUN CLEAR     32  32 100 CALM      30.36S
6HR MIN TEMP:  32; 6HR MAX TEMP:  40;

*WHARTON       CLEAR     39  30  70 E3        30.36R
6HR MIN TEMP:  37; 6HR MAX TEMP:  43;

*COLUMBUS      FAIR      42  32  66 E3        30.34R
6HR MIN TEMP:  37; 6HR MAX TEMP:  46;

*EAGLE LAKE    SUNNY     37  32  82 NE5       30.35S WCI  33
6HR MIN TEMP:  37; 6HR MAX TEMP:  45;

$$

TXZ214>216-236>238-101300-
THE UPPER TEXAS COAST

CITY           SKY/WX    TMP DP  RH WIND       PRES   REMARKS
*ORANGE        CLEAR     37  29  73 CALM      30.37R
6HR MIN TEMP:  36; 6HR MAX TEMP:  48;

PORT ARTHUR    CLEAR     39  31  72 NW5       30.36R WCI  36
6HR MIN TEMP:  38; 6HR MAX TEMP:  48;

GALVESTON      CLEAR     50  35  56 N10       30.37R WCI  46
6HR MIN TEMP:  46; 6HR MAX TEMP:  52;

ANGLETON       CLEAR     38  35  89 CALM      30.36R
6HR MIN TEMP:  37; 6HR MAX TEMP:  47;

*BAY CITY      CLEAR     41  38  88 E3        30.35S
PALACIOS       CLEAR     43  38  82 NE7       30.35R WCI  39
6HR MIN TEMP:  41; 6HR MAX TEMP:  53;

$$

TXZ229>234-239>247-101300-
TEXAS COASTAL BEND AND RIO GRANDE PLAINS

CITY           SKY/WX    TMP DP  RH WIND       PRES   REMARKS
VICTORIA       CLEAR     39  34  82 E6        30.34S WCI  35
6HR MIN TEMP:  37; 6HR MAX TEMP:  48;

*BEEVILLE      CLEAR     44  34  68 N8        30.33R WCI  39
6HR MIN TEMP:  43; 6HR MAX TEMP:  49;

ROCKPORT       CLEAR     45  39  79 N5        30.34R WCI  43
6HR MIN TEMP:  44; 6HR MAX TEMP:  55;

*PORT ARANSAS  CLEAR     54  44  68 SW5       30.33R
6HR MIN TEMP:  53; 6HR MAX TEMP:  56;

*PORT LAVACA   CLEAR     41  37  84 CALM      30.34R
6HR MIN TEMP:  40; 6HR MAX TEMP:  48;

*INGLESIDE     CLEAR     47  39  75 W3        30.33R
CORPUS CHRISTI PTCLDY    42  31  64 SW3       30.32S
6HR MIN TEMP:  40; 6HR MAX TEMP:  50;

CORPUS NAS     CLEAR     48  39  71 SW9       30.33R WCI  44
6HR MIN TEMP:  47; 6HR MAX TEMP:  53;

*ROBSTOWN      CLEAR     42  33  70 SW5       30.33S WCI  39
6HR MIN TEMP:  40; 6HR MAX TEMP:  48;

ALICE            N/A     43  33  68 W5        30.32R WCI  40
6HR MIN TEMP:  43; 6HR MAX TEMP:  50;

KINGSVILLE NAS CLEAR     44  36  73 W5        30.33R WCI  42
6HR MIN TEMP:  43; 6HR MAX TEMP:  51;

COTULLA        CLEAR     43  26  51 N3        30.33R
6HR MIN TEMP:  39; 6HR MAX TEMP:  49;

*FAITH RANCH   CLEAR     39  25  56 CALM      30.32
LAREDO         CLEAR     43  30  60 E3        30.32S
6HR MIN TEMP:  42; 6HR MAX TEMP:  52;

$$

TXZ248>255-101300-
DEEP SOUTH TEXAS

CITY           SKY/WX    TMP DP  RH WIND       PRES   REMARKS
BROWNSVILLE    PTCLDY    47  42  83 SW3       30.35R
6HR MIN TC1F1C2F2C3F3C4F4C5F5C6F6C7M1C8M2C9!


USA.gov is the U.S. government's official web portal to all federal, state and local government web resources and services.